Location: Unspecified
(0.0000°N, 0.0000°E)
Time: 00:27:33
(UTC+00:00)

Traac - Pass Details

Date: 23 December 2025
Orbit: 951 x 1102 km, 32.4° (Epoch: 19 January)

Event Time Altitude Azimuth Distance (km) Brightness Sun altitude
Exits shadow 04:14:02 32° 246° (WSW) 1,708 8.9 -23.9°
Maximum altitude 04:15:56 38° 213° (SSW) 1,558 8.9 -23.5°
Drops below altitude 10° 04:22:28 10° 147° (SSE) 2,916 11.3 -22.0°
Sets 04:25:28 0° 139° (SE) 3,889 12.3 -21.4°
